Hourly Data Report for October 05, 2017

All times are specified in Local Standard Time (LST). Add 1 hour to adjust for Daylight Saving Time where and when it is observed.

OTTAWA INTL A
ONTARIO

45°19'00.000" N
75°40'00.000" W
114.90 m
6106001
71628
YOW

Download Data

Hourly Data (October 2017)
Hourly Data Report for October 5, 2017
Temp Definition
°C
Dew Point Temp Definition
°C
Rel Hum Definition
%
Wind Dir Definition
10's deg

Wind Spd Definition
km/h
Visibility Definition
km
Stn Press Definition
kPa
Hmdx Definition


Wind Chill Definition


Weather Definition


TIME
00:00 Legend Double Dagger 13.9 12.2 89 28 17 24.1 100.40     LegendNANA
01:00 Legend Double Dagger 12.6 11.4 92 26 12 24.1 100.47     Clear
02:00 Legend Double Dagger 11.1 10.3 95 27 8 24.1 100.46     LegendNANA
03:00 Legend Double Dagger 10.3 9.5 95 24 9 24.1 100.46     LegendNANA
04:00 Legend Double Dagger 9.9 9.3 96 25 11 24.1 100.45     Clear
05:00 Legend Double Dagger 9.3 8.8 97 26 14 24.1 100.44     LegendNANA
06:00 Legend Double Dagger 9.6 8.7 94 28 11 24.1 100.45     LegendNANA
07:00 Legend Double Dagger 10.1 9.4 95 22 8 24.1 100.49     Clear
08:00 Legend Double Dagger 12.1 10.4 89 23 11 24.1 100.49     LegendNANA
09:00 Legend Double Dagger 13.7 10.3 80 23 13 24.1 100.50     LegendNANA
10:00 Legend Double Dagger 15.7 9.7 67 26 15 24.1 100.47     Mainly Clear
11:00 Legend Double Dagger 17.9 9.8 59 22 17 24.1 100.37     LegendNANA
12:00 Legend Double Dagger 18.5 8.5 52 23 18 24.1 100.29     LegendNANA
13:00 Legend Double Dagger 19.4 7.9 47 25 22 24.1 100.22     Mostly Cloudy
14:00 Legend Double Dagger 19.7 8.2 47 26 23 24.1 100.19     LegendNANA
15:00 Legend Double Dagger 18.3 8.6 53 24 25 24.1 100.16     LegendNANA
16:00 Legend Double Dagger 18.2 9.2 55 25 19 24.1 100.13     Mostly Cloudy
17:00 Legend Double Dagger 16.6 10.4 66 31 16 24.1 100.16     LegendNANA
18:00 Legend Double Dagger 14.9 9.5 70 28 5 24.1 100.18     LegendNANA
19:00 Legend Double Dagger 13.8 10.5 80 22 5 24.1 100.24     Mostly Cloudy
20:00 Legend Double Dagger 13.4 10.6 83 20 9 24.1 100.27     LegendNANA
21:00 Legend Double Dagger 12.0 8.9 81 24 9 24.1 100.28     LegendNANA
22:00 Legend Double Dagger 10.9 8.1 83 26 10 24.1 100.29     Mainly Clear
23:00 Legend Double Dagger 11.4 8.6 83 25 10 24.1 100.29     LegendNANA

Notes on Data Quality.

Legend

  • E = Estimated
  • M = Missing
  • NA = Not Available
  • ‡ = Partner data that is not subject to review by the National Climate Archives
Date modified: